Weather History for Fort Smith, AR

Change the Weather History Date:

Tuesday, November 29, 2011

  Actual Average Record
Temperature  
Mean Temperature 44 °F 46 °F  
Max Temperature 55 °F 56 °F 78 °F (1927)
Min Temperature 32 °F 35 °F 8 °F (1976)
Degree Days  
Heating Degree Days 21 19  
Month to date heating degree days 305 392  
Since 1 July heating degree days 416 546  
Moisture  
Dew Point 29 °F    
Average Humidity 62    
Maximum Humidity 82    
Minimum Humidity 41    
Precipitation  
Precipitation 0.00 in 0.14 in 1.69 in (2006)
Month to date precipitation 7.19 4.30  
Year to date precipitation 43.12 42.03  
Sea Level Pressure  
Sea Level Pressure 30.15 in    
Wind  
Wind Speed 9 mph (WNW)    
Max Wind Speed 20 mph    
Max Gust Speed 24 mph    
Visibility 10 miles    
Events      
T = Trace of Precipitation, MM = Missing Value Source: NWS Daily Summary

Daily Weather History Graph

Daily Weather History Graph

Search for Another Location

Airport:

Trip Planner

Search our weather history database for the weather conditions in past years. The results will help you decide how hot, cold, wet, or windy it might be!

Date:

Astronomy

Nov. 29, 2011 Rise Set
Actual Time 7:05 AM CST 5:05 PM CST
Civil Twilight 6:38 AM CST 5:33 PM CST
Nautical Twilight 6:06 AM CST 6:04 PM CST
Astronomical Twilight 5:36 AM CST 6:35 PM CST
Moon 10:56 AM CST (11/29) 9:55 PM CST (11/29)
Length of Visible Light 10h 55m
Length of Day
9h 59m
Waxing Crescent, 24% of the Moon is Illuminated
Nov 29
Waxing Crescent
Dec 2
First Quarter
Dec 10
Full
Dec 17
Last Quarter
Dec 24
New

Hourly Weather History & Observations

Time (CST) Temp. Windchill Dew Point Humidity Pressure Visibility Wind Dir Wind Speed Gust Speed Precip Events Conditions
12:53 AM 35.6 °F 28.0 °F 28.4 °F 75% 30.03 in 10.0 mi West 10.4 mph - N/A   Clear
1:53 AM 37.0 °F 31.0 °F 28.0 °F 70% 30.05 in 10.0 mi WNW 8.1 mph - N/A   Clear
2:53 AM 36.0 °F 30.3 °F 28.0 °F 73% 30.05 in 10.0 mi West 6.9 mph - N/A   Clear
3:53 AM 33.1 °F 27.7 °F 27.0 °F 78% 30.07 in 10.0 mi WSW 5.8 mph - N/A   Clear
4:53 AM 33.1 °F 24.9 °F 28.0 °F 82% 30.08 in 10.0 mi West 10.4 mph - N/A   Clear
5:53 AM 33.8 °F 27.0 °F 28.4 °F 81% 30.08 in 10.0 mi WNW 8.1 mph - N/A   Clear
6:53 AM 34.0 °F 26.6 °F 28.0 °F 79% 30.11 in 10.0 mi West 9.2 mph - N/A   Clear
7:53 AM 36.0 °F 31.1 °F 28.9 °F 76% 30.13 in 10.0 mi West 5.8 mph - N/A   Clear
8:53 AM 41.0 °F 34.7 °F 28.9 °F 62% 30.15 in 10.0 mi WNW 10.4 mph - N/A   Clear
9:53 AM 44.1 °F 38.6 °F 28.9 °F 55% 30.17 in 10.0 mi West 10.4 mph - N/A   Clear
10:53 AM 48.0 °F - 30.0 °F 50% 30.17 in 10.0 mi NW 11.5 mph 17.3 mph N/A   Clear
11:53 AM 50.0 °F - 30.9 °F 48% 30.16 in 10.0 mi NNW 18.4 mph - N/A   Clear
12:53 PM 52.0 °F - 30.9 °F 45% 30.15 in 10.0 mi NW 13.8 mph 23.0 mph N/A   Clear
1:53 PM 53.1 °F - 30.9 °F 43% 30.14 in 10.0 mi NNW 10.4 mph 19.6 mph N/A   Clear
2:53 PM 54.0 °F - 32.0 °F 43% 30.15 in 10.0 mi NW 13.8 mph - N/A   Clear
3:53 PM 54.0 °F - 32.0 °F 43% 30.17 in 10.0 mi NNW 11.5 mph - N/A   Clear
4:53 PM 52.0 °F - 32.0 °F 47% 30.19 in 10.0 mi NNW 6.9 mph - N/A   Clear
5:53 PM 48.9 °F - 32.0 °F 52% 30.19 in 10.0 mi NNW 5.8 mph - N/A   Clear
6:53 PM 46.0 °F 43.9 °F 32.0 °F 58% 30.21 in 10.0 mi WNW 4.6 mph - N/A   Clear
7:53 PM 46.0 °F 42.5 °F 30.9 °F 56% 30.23 in 10.0 mi NNW 6.9 mph - N/A   Clear
8:53 PM 45.0 °F 40.6 °F 28.0 °F 52% 30.22 in 10.0 mi WNW 8.1 mph - N/A   Clear
9:53 PM 42.1 °F 38.4 °F 27.0 °F 55% 30.24 in 10.0 mi NW 5.8 mph - N/A   Clear
10:53 PM 39.0 °F 36.8 °F 26.1 °F 60% 30.25 in 10.0 mi WNW 3.5 mph - N/A   Clear
11:53 PM 39.9 °F 37.8 °F 24.1 °F 53% 30.24 in 10.0 mi WNW 3.5 mph - N/A   Clear